Regional Weather Roundup
Issued by NWS Northern Indiana

Home | Current Version | Previous Version | Text Only | Print | Product List | Glossary Off
Versions: 1 2 3 4 5 6 7 8 9 10 11 12 13 14 15 16 17 18 19 20 21 22 23 24 25 26 27 28 29 30 31 32 33 34 35 36 37 38 39 40 41 42 43 44 45 46 47 48 49 50

000
ASUS43 KIWX 240910
RWRIWX

KIWX WEATHER ROUNDUP
NATIONAL WEATHER SERVICE NORTHERN INDIANA
500 AM EDT THU APR 24 2014

NOTE: "FAIR" INDICATES FEW OR NO CLOUDS BELOW 12,000 FEET WITH NO
SIGNIFICANT WEATHER AND/OR OBSTRUCTIONS TO VISIBILITY.

* THESE STATIONS ARE NOT UNDER NWS QUALITY CONTROL. THEY ALSO MAY NOT
  REPORT WEATHER SUCH AS PRECIPITATION OR FOG.

INZ001>027-241000-
NORTHERN INDIANA

CITY           SKY/WX    TMP DP  RH WIND       PRES   REMARKS
GARY*          CLOUDY    43  37  78 N6        30.07S
VALPARAISO     CLOUDY    43  38  82 NE6       30.06F
MICHIGAN CITY* LGT RAIN  45  32  61 CALM      30.07S
LAPORTE*       DRIZZLE   45  34  66 E5        30.08R
SOUTH BEND     LGT RAIN  50  29  44 NE3       30.09R
GOSHEN         CLOUDY    49  32  52 E9        30.08R
MONTICELLO*    CLOUDY    48  39  69 CALM      30.04R
LOGANSPORT*    CLOUDY    46  36  66 E7        30.06R
ROCHESTER*     CLOUDY    50  34  53 E6        30.07R
WARSAW*        CLOUDY    48  30  49 E6        30.07S
ANGOLA*        MOCLDY    45  34  65 SE5       30.09R
FORT WAYNE     CLOUDY    46  35  65 E6        30.10R
HUNTINGTON*    CLOUDY    48  34  58 E5        30.08R
PERU/GRISSOM   CLOUDY    49  38  64 SE6       30.05R
MARION*        CLOUDY    48  32  54 SE8       30.06S

$$
INZ028>050-241000-
CENTRAL INDIANA

CITY           SKY/WX    TMP DP  RH WIND       PRES   REMARKS
LAFAYETTE      CLOUDY    50  36  58 E9        30.03R
KOKOMO*        CLOUDY    48  36  61 E7        30.05S
MUNCIE*          N/A     48  35  60 SE9       30.06R
INDIANAPOLIS   CLOUDY    51  32  48 SE12      30.02S

$$
MIZ043>046-050>051-056>058-064>065-071>073-077>080-241000-
SOUTHWEST LOWER MICHIGAN

CITY           SKY/WX    TMP DP  RH WIND       PRES   REMARKS
BATTLE CREEK   CLOUDY    47  26  44 E5        30.10R
BENTON HARBOR  CLOUDY    45  33  63 E7        30.08R
COLDWATER*     CLOUDY    46  30  54 SE8       30.09R
HILLSDALE*     CLOUDY    46  29  53 SE5       30.10R
HOLLAND        CLOUDY    46  32  58 E6        30.11R
GRAND RAPIDS   CLOUDY    44  31  60 E5        30.11R
KALAMAZOO      CLOUDY    47  30  51 CALM      30.10R
STURGIS*       CLOUDY    46  30  53 SE7       30.09R
THREE RIVERS*  CLOUDY    49  28  44 SE3       30.10R

$$
OHZ001>008-015>018-024>025-241000-
NORTHWEST OHIO

CITY           SKY/WX    TMP DP  RH WIND       PRES   REMARKS
WAUSEON*       CLOUDY    45  34  65 E6        30.12R
DEFIANCE       CLOUDY    46  31  55 SE3       30.11R
FINDLAY        CLOUDY    44  31  60 SE7       30.10R
TOLEDO EXPRESS CLOUDY    43  30  60 E6        30.12R
TOLEDO METCALF CLOUDY    43  30  60 E7        30.14R
LIMA           CLOUDY    46  30  53 SE7       30.09R

$$
&&



USA.gov is the U.S. government's official web portal to all federal, state and local government web resources and services.